Location: Pacheco
(37.9835°N, 122.0752°W)
Time: 13:48:49
(UTC+00:00)

Envisat - Visible Passes

Search period start: 21 June 2024 00:00
Search period end: 01 July 2024 00:00
Orbit: 762 x 764 km, 98.3° (Epoch: 20 June)

Date Brightness Start Highest point End Pass type
(mag) Time Alt. Az. Time Alt. Az. Time Alt. Az.
21 Jun 5.5 10:05:14 10° ENE 10:07:36 13° E 10:09:58 10° ESE visible
21 Jun 3.1 11:41:57 10° N 11:46:58 64° WNW 11:51:57 10° SSW visible
22 Jun 3.6 11:04:38 10° NNE 11:09:37 55° E 11:14:17 12° S visible
23 Jun 4.9 10:28:02 10° NE 10:32:04 23° E 10:36:04 10° SSE visible
23 Jun 3.8 12:06:27 10° N 12:11:04 36° WNW 12:15:41 10° SW visible
24 Jun 3.0 11:28:46 10° NNE 11:33:51 85° WNW 11:38:45 11° SSW visible
25 Jun 4.1 10:51:39 10° NNE 10:56:26 41° E 11:00:54 11° SSE visible
26 Jun 5.3 10:15:28 10° NE 10:18:48 17° E 10:22:08 10° SE visible
26 Jun 3.4 11:53:07 10° N 11:58:01 49° WNW 12:02:51 10° SW visible
27 Jun 3.2 11:15:38 10° NNE 11:20:43 72° ESE 11:25:23 12° S visible
28 Jun 4.5 10:38:46 10° NE 10:43:13 30° E 10:47:31 11° SSE visible
29 Jun 5.5 10:03:19 10° ENE 10:05:32 13° E 10:07:44 10° ESE visible
29 Jun 3.1 11:39:53 10° N 11:44:54 66° WNW 11:49:50 10° SSW visible
30 Jun 3.6 11:02:35 10° NNE 11:07:33 53° E 11:11:58 13° S visible
